星链-30540 (STARLINK-30540 )

导读

STARLINK-30540是美国SpaceX公司星链(Starlink)项目中的一颗低轨通信卫星,于2023年10月5日发射入轨。作为星链巨型星座的组成部分,它工作在近地轨道,采用Ku/Ka波段通信技术,搭配霍尔推进系统与自主避撞能力,旨在为全球提供高速宽带互联网接入服务,填补偏远地区网络覆盖空白。单星设计寿命约5-7年,退役后会受控离轨坠入大气层焚毁,降低空间碎片风险。

基本信息
目录编号:
58002
目录名称:
STARLINK-30540
国际标识:
2023-153M
轨道中心:
EARTH
卫星名称:
星链-30540
卫星全名:
星链-30540 (STARLINK-30540 )
卫星状态:
在轨 (已飞行986 天)
发射日期:
2023-10-05 UTC
国别 :
美国 (US)
星等 :
--
轨道信息
数据来源 国际轨道数据 AOE轨道数据
星历时间 2026-06-16T18:53:41+0800
21小时前
查看轨道信息
2026-06-16T07:00:00+0800
1天前
查看轨道信息
半长轴 6861.179km 6861.182km
偏心率 0.0000824 0.0001118
轨道倾角 43.009° 42.997°
近地点辐角 230.349° 239.411°
升交点赤经 229.056° 231.855°
平近点角 129.729° 271.943°
近地点 482.476km 482.277km
远地点 483.608km 483.813km
周期 94.267分钟 94.267分钟
每日圈数 15.275824 15.275816
详细信息
固有亮度:
5
最大亮度:
0.3
卫星平台:
Starlink v2.0 mini
覆盖范围:
全球
运营商:
太空探索技术公司
运营商所在国:
美国
制造商(研发单位):
太空探索技术公司
制造商所在国:
美国
使用方式:
暂无
卫星简介
星链(Starlink)计划是由太空探索技术公司(SpaceX)提出的一个巨型低轨卫星互联网星座项目,计划在2019年至2024年间在太空搭建由约1.2万颗卫星组成的“星链”网络,其中1584颗将部署在地球上空550千米处的近地轨道,并从2020年开始工作。该卫星仍在工作。
2D轨道图
3D轨道图
轨道高度分析图
轨道倾角分析图
轨道综合分析图
查看轨道综合分析图